Weather in Bhaktapur

Nepal     27°40′28″N   85°25′46″E
temp.,
°C
wind,
m/s
gust,
m/s
humid.,
%
clouds,
%
prec.,
mm/h
press.,
hPa
HPBL,
m
11 may, tue
tue1123:45+17ene1178100 2.8 101018
02:45+16ene017891 0.0 100915
05:45+16ese117151 0.0 100914
08:45+22se215019 0.0 1009931
11:45+24ssw3443100 0.2 10081853
14:45+18nne237385 3.0 1008316
17:45+16wnw017297 3.8 1007121
20:45+16e1176100 0.0 100915
12 may, wed
wed1223:45+16nne1175100 0.4 100928
02:45+14w1179100 1.1 100814
05:45+15nne0181100 2.1 100920
08:45+16sse1281100 0.9 1011170
11:45+19e2264100 1.6 1009624
14:45+20ese125591 0.6 1006958
17:45+16nw3487100 2.7 1008272
20:45+14wnw118458 0.0 100812
13 may, thu
thu1323:45+14e1183100 0.0 100819
02:45+14ne0178100 0.0 100714
05:45+14wnw3487100 0.8 1011172
08:45+15ese1285100 3.4 1012223
11:45+18sse116298 3.6 1009379
14:45+16ese127381 1.1 1008327
17:45+19s1161100 1.2 1005265
20:45+15wsw1175100 0.0 100815
14 may, fri
fri1423:45+15e127796 0.1 100831
02:45+15w0173100 0.0 100611
05:45+16wsw117280 0.1 100713
08:45+20s115712 0.6 1008770
11:45+24ssw214318 1.8 10061783
14:45+21sw236176 2.5 1005469
17:45+19w116854 7.8 1005112
20:45+15nnw239095 5.0 1009149
15 may, sat
sat1523:45+15nne11859 5.1 100811
02:45+15nnw118289 0.4 100729
05:45+15wsw008094 0.9 100814
08:45+20s116128 0.3 1009391
11:45+25sw224179 0.9 10072244
14:45+23sw124655 0.5 10061207
17:45+20nw226396 0.5 100674
20:45